Time,TemperatureF,DewpointF,PressureIn,WindDirection,WindDirectionDegrees,WindSpeedMPH,WindSpeedGustMPH,Humidity,HourlyPrecipIn,Conditions,Clouds,dailyrainin,SoftwareType,DateUTC
2013-01-19 00:09:00,40.6,28.0,30.22,SW,225,6.0,11.0,60,0.00,,,0.00,weatherlink.com 1.10,2013-01-19 06:09:00,
2013-01-19 00:24:00,40.7,27.0,30.22,SW,221,3.0,11.0,59,0.00,,,0.00,weatherlink.com 1.10,2013-01-19 06:24:00,
2013-01-19 00:39:00,40.1,27.0,30.22,SSW,195,3.0,9.0,60,0.00,,,0.00,weatherlink.com 1.10,2013-01-19 06:39:00,
2013-01-19 00:54:00,40.2,27.0,30.21,SW,225,4.0,12.0,60,0.00,,,0.00,weatherlink.com 1.10,2013-01-19 06:54:00,
2013-01-19 01:09:00,40.1,27.0,30.21,South,191,6.0,8.0,59,0.00,,,0.00,weatherlink.com 1.10,2013-01-19 07:09:00,
2013-01-19 01:24:00,40.0,27.0,30.21,SSW,196,4.0,7.0,59,0.00,,,0.00,weatherlink.com 1.10,2013-01-19 07:24:00,
2013-01-19 01:39:00,40.1,26.0,30.21,SW,215,4.0,10.0,58,0.00,,,0.00,weatherlink.com 1.10,2013-01-19 07:39:00,
2013-01-19 01:54:00,40.4,26.0,30.21,SW,223,5.0,13.0,58,0.00,,,0.00,weatherlink.com 1.10,2013-01-19 07:54:00,
2013-01-19 02:09:00,40.6,26.0,30.21,South,181,6.0,13.0,57,0.00,,,0.00,weatherlink.com 1.10,2013-01-19 08:09:00,
2013-01-19 02:24:00,40.0,26.0,30.20,SW,223,7.0,11.0,58,0.00,,,0.00,weatherlink.com 1.10,2013-01-19 08:24:00,
2013-01-19 02:39:00,40.3,26.0,30.20,WSW,239,5.0,12.0,57,0.00,,,0.00,weatherlink.com 1.10,2013-01-19 08:39:00,
2013-01-19 02:54:00,40.3,26.0,30.19,SSW,196,14.0,14.0,57,0.00,,,0.00,weatherlink.com 1.10,2013-01-19 08:54:00,
2013-01-19 03:09:00,40.3,26.0,30.18,SW,219,10.0,16.0,57,0.00,,,0.00,weatherlink.com 1.10,2013-01-19 09:09:00,
2013-01-19 03:24:00,40.0,26.0,30.18,SSW,209,6.0,13.0,57,0.00,,,0.00,weatherlink.com 1.10,2013-01-19 09:24:00,
2013-01-19 03:39:00,39.7,26.0,30.18,WSW,244,9.0,14.0,58,0.00,,,0.00,weatherlink.com 1.10,2013-01-19 09:39:00,
2013-01-19 03:54:00,39.7,26.0,30.17,SW,230,11.0,14.0,58,0.00,,,0.00,weatherlink.com 1.10,2013-01-19 09:54:00,
2013-01-19 04:09:00,39.7,26.0,30.17,SW,221,16.0,18.0,59,0.00,,,0.00,weatherlink.com 1.10,2013-01-19 10:09:00,
2013-01-19 04:24:00,39.8,26.0,30.16,SW,232,12.0,18.0,59,0.00,,,0.00,weatherlink.com 1.10,2013-01-19 10:24:00,
2013-01-19 04:39:00,40.0,27.0,30.16,WSW,238,6.0,19.0,59,0.00,,,0.00,weatherlink.com 1.10,2013-01-19 10:39:00,
2013-01-19 04:54:00,39.6,27.0,30.16,SW,226,8.0,14.0,60,0.00,,,0.00,weatherlink.com 1.10,2013-01-19 10:54:00,
2013-01-19 05:10:00,39.5,26.0,30.16,SSW,211,7.0,17.0,60,0.00,,,0.00,weatherlink.com 1.10,2013-01-19 11:10:00,
2013-01-19 06:55:00,39.2,28.0,30.15,WSW,242,13.0,15.0,64,0.00,,,0.00,weatherlink.com 1.10,2013-01-19 12:55:00,
2013-01-19 07:10:00,39.2,28.0,30.15,SW,221,16.0,16.0,65,0.00,,,0.00,weatherlink.com 1.10,2013-01-19 13:10:00,
2013-01-19 07:25:00,39.0,28.0,30.15,SW,236,10.0,17.0,66,0.00,,,0.00,weatherlink.com 1.10,2013-01-19 13:25:00,
2013-01-19 07:40:00,39.5,29.0,30.15,WSW,238,12.0,13.0,66,0.00,,,0.00,weatherlink.com 1.10,2013-01-19 13:40:00,
2013-01-19 07:55:00,39.9,30.0,30.15,SW,228,6.0,14.0,67,0.00,,,0.00,weatherlink.com 1.10,2013-01-19 13:55:00,
2013-01-19 08:10:00,40.7,30.0,30.15,WSW,240,4.0,15.0,66,0.00,,,0.00,weatherlink.com 1.10,2013-01-19 14:10:00,
2013-01-19 08:25:00,41.6,31.0,30.15,SW,233,9.0,15.0,65,0.00,,,0.00,weatherlink.com 1.10,2013-01-19 14:25:00,
2013-01-19 08:40:00,43.2,32.0,30.15,SSW,200,5.0,20.0,64,0.00,,,0.00,weatherlink.com 1.10,2013-01-19 14:40:00,
2013-01-19 08:55:00,44.4,32.0,30.15,SSW,210,11.0,18.0,62,0.00,,,0.00,weatherlink.com 1.10,2013-01-19 14:55:00,
2013-01-19 09:10:00,45.8,33.0,30.15,SW,229,14.0,21.0,61,0.00,,,0.00,weatherlink.com 1.10,2013-01-19 15:10:00,
2013-01-19 09:25:00,47.1,33.0,30.15,SE,130,6.0,20.0,59,0.00,,,0.00,weatherlink.com 1.10,2013-01-19 15:25:00,
2013-01-19 09:40:00,48.2,33.0,30.15,West,269,13.0,22.0,56,0.00,,,0.00,weatherlink.com 1.10,2013-01-19 15:40:00,
2013-01-19 09:55:00,49.2,33.0,30.16,SW,236,17.0,25.0,55,0.00,,,0.00,weatherlink.com 1.10,2013-01-19 15:55:00,
2013-01-19 10:10:00,50.4,34.0,30.16,SW,222,17.0,20.0,54,0.00,,,0.00,weatherlink.com 1.10,2013-01-19 16:10:00,
2013-01-19 10:25:00,52.3,35.0,30.16,West,265,8.0,20.0,52,0.00,,,0.00,weatherlink.com 1.10,2013-01-19 16:25:00,
2013-01-19 10:40:00,53.5,35.0,30.15,NW,306,3.0,18.0,49,0.00,,,0.00,weatherlink.com 1.10,2013-01-19 16:40:00,
2013-01-19 10:56:00,54.9,35.0,30.14,WSW,244,9.0,24.0,48,0.00,,,0.00,weatherlink.com 1.10,2013-01-19 16:56:00,
2013-01-19 11:26:00,57.0,35.0,30.13,ENE,63,9.0,26.0,44,0.00,,,0.00,weatherlink.com 1.10,2013-01-19 17:26:00,
2013-01-19 12:26:00,60.1,36.0,30.09,WSW,245,11.0,29.0,40,0.00,,,0.00,weatherlink.com 1.10,2013-01-19 18:26:00,
2013-01-19 12:41:00,61.2,35.0,30.09,SSW,197,11.0,25.0,38,0.00,,,0.00,weatherlink.com 1.10,2013-01-19 18:41:00,
2013-01-19 13:11:00,61.3,35.0,30.08,West,279,17.0,25.0,38,0.00,,,0.00,weatherlink.com 1.10,2013-01-19 19:11:00,
2013-01-19 13:56:00,62.3,35.0,30.06,West,265,10.0,23.0,36,0.00,,,0.00,weatherlink.com 1.10,2013-01-19 19:56:00,
2013-01-19 14:41:00,62.4,36.0,30.06,SW,223,7.0,24.0,37,0.00,,,0.00,weatherlink.com 1.10,2013-01-19 20:41:00,
2013-01-19 14:56:00,62.3,35.0,30.05,WNW,286,7.0,21.0,36,0.00,,,0.00,weatherlink.com 1.10,2013-01-19 20:56:00,
2013-01-19 15:11:00,62.6,35.0,30.05,NW,306,12.0,22.0,36,0.00,,,0.00,weatherlink.com 1.10,2013-01-19 21:11:00,
2013-01-19 15:56:00,61.8,36.0,30.06,West,279,6.0,16.0,38,0.00,,,0.00,weatherlink.com 1.10,2013-01-19 21:56:00,
2013-01-19 16:11:00,61.3,36.0,30.07,WSW,239,8.0,16.0,39,0.00,,,0.00,weatherlink.com 1.10,2013-01-19 22:11:00,
2013-01-19 16:41:00,59.8,36.0,30.08,West,260,7.0,15.0,41,0.00,,,0.00,weatherlink.com 1.10,2013-01-19 22:41:00,
2013-01-19 16:56:00,58.6,36.0,30.09,WSW,252,8.0,16.0,43,0.00,,,0.00,weatherlink.com 1.10,2013-01-19 22:56:00,
2013-01-19 17:11:00,57.3,36.0,30.09,West,275,4.0,14.0,45,0.00,,,0.00,weatherlink.com 1.10,2013-01-19 23:11:00,
2013-01-19 17:26:00,55.4,35.0,30.10,West,263,4.0,11.0,47,0.00,,,0.00,weatherlink.com 1.10,2013-01-19 23:26:00,
2013-01-19 17:41:00,53.8,35.0,30.11,West,262,4.0,7.0,50,0.00,,,0.00,weatherlink.com 1.10,2013-01-19 23:41:00,
2013-01-19 17:56:00,53.1,35.0,30.11,West,269,3.0,8.0,51,0.00,,,0.00,weatherlink.com 1.10,2013-01-19 23:56:00,
2013-01-19 18:27:00,51.7,35.0,30.12,West,279,3.0,4.0,54,0.00,,,0.00,weatherlink.com 1.10,2013-01-20 00:27:00,
2013-01-19 18:41:00,51.0,36.0,30.13,WNW,283,6.0,10.0,56,0.00,,,0.00,weatherlink.com 1.10,2013-01-20 00:41:00,
2013-01-19 19:12:00,50.1,37.0,30.15,West,278,7.0,11.0,60,0.00,,,0.00,weatherlink.com 1.10,2013-01-20 01:12:00,
2013-01-19 19:57:00,48.1,36.0,30.16,WSW,240,4.0,7.0,64,0.00,,,0.00,weatherlink.com 1.10,2013-01-20 01:57:00,
2013-01-19 20:41:00,47.0,36.0,30.17,SW,234,6.0,6.0,66,0.00,,,0.00,weatherlink.com 1.10,2013-01-20 02:41:00,
2013-01-19 20:56:00,47.2,36.0,30.17,WSW,244,2.0,6.0,66,0.00,,,0.00,weatherlink.com 1.10,2013-01-20 02:56:00,
2013-01-19 21:12:00,46.8,36.0,30.17,West,262,3.0,7.0,66,0.00,,,0.00,weatherlink.com 1.10,2013-01-20 03:12:00,
2013-01-19 21:26:00,46.2,36.0,30.17,WSW,249,5.0,8.0,68,0.00,,,0.00,weatherlink.com 1.10,2013-01-20 03:26:00,
2013-01-19 21:41:00,45.8,36.0,30.18,WSW,242,5.0,8.0,69,0.00,,,0.00,weatherlink.com 1.10,2013-01-20 03:41:00,
2013-01-19 22:11:00,45.4,36.0,30.18,West,263,4.0,6.0,70,0.00,,,0.00,weatherlink.com 1.10,2013-01-20 04:11:00,
2013-01-19 22:27:00,45.4,36.0,30.19,WSW,254,3.0,5.0,69,0.00,,,0.00,weatherlink.com 1.10,2013-01-20 04:27:00,
2013-01-19 22:57:00,47.9,36.0,30.20,NW,315,10.0,18.0,63,0.00,,,0.00,weatherlink.com 1.10,2013-01-20 04:57:00,
2013-01-19 23:12:00,47.1,35.0,30.21,NNW,338,8.0,13.0,63,0.00,,,0.00,weatherlink.com 1.10,2013-01-20 05:12:00,
2013-01-19 23:27:00,46.5,33.0,30.22,North,355,4.0,17.0,60,0.00,,,0.00,weatherlink.com 1.10,2013-01-20 05:27:00,
2013-01-19 23:42:00,45.7,33.0,30.22,NW,326,6.0,13.0,62,0.00,,,0.00,weatherlink.com 1.10,2013-01-20 05:42:00,
2013-01-19 23:57:00,45.2,33.0,30.22,NNW,342,4.0,13.0,63,0.00,,,0.00,weatherlink.com 1.10,2013-01-20 05:57:00,